Weather History for Meadville, PA

Change the Weather History Date:

Tuesday, October 1, 2013

  Actual Average Record
Temperature  
Mean Temperature 64 °F -  
Max Temperature 73 °F 67 °F 85 °F (1953)
Min Temperature 55 °F 44 °F 31 °F (1960)
Degree Days  
Heating Degree Days 1    
Growing Degree Days 14 (Base 50)    
Moisture  
Dew Point 57 °F    
Average Humidity 84    
Maximum Humidity 100    
Minimum Humidity 53    
Precipitation  
Precipitation 0.00 in - - ()
Sea Level Pressure  
Sea Level Pressure 30.04 in    
Wind  
Wind Speed 5 mph (SW)    
Max Wind Speed 10 mph    
Max Gust Speed 17 mph    
Visibility 7 miles    
Events      
Averages and records for this station are not official NWS values.
T = Trace of Precipitation, MM = Missing Value Source: NWS Daily Summary

Daily Weather History Graph

Daily Weather History Graph

Search for Another Location

Airport:

Trip Planner

Search our weather history database for the weather conditions in past years. The results will help you decide how hot, cold, wet, or windy it might be!

Date:

Astronomy

Oct. 01, 2013 Rise Set
Actual Time 7:17 AM EDT 7:02 PM EDT
Civil Twilight 6:50 AM EDT 7:29 PM EDT
Nautical Twilight 6:18 AM EDT 8:01 PM EDT
Astronomical Twilight 5:45 AM EDT 8:34 PM EDT
Moon 3:48 AM EDT (10/1) 5:06 PM EDT (10/1)
Length of Visible Light 12h 39m
Length of Day
11h 44m
Waning Crescent, 12% of the Moon is Illuminated
Oct 1
Waning Crescent
Oct 4
New
Oct 11
First Quarter
Oct 18
Full
Oct 26
Last Quarter

Hourly Weather History & Observations

Time (EDT) Temp. Dew Point Humidity Pressure Visibility Wind Dir Wind Speed Gust Speed Precip Events Conditions
12:53 AM 59.0 °F 57.0 °F 93% 30.02 in 7.0 mi Calm Calm - N/A   Mostly Cloudy
1:53 AM 59.0 °F 55.9 °F 90% 30.02 in 9.0 mi South 5.8 mph - N/A   Mostly Cloudy
2:53 AM 57.9 °F 55.0 °F 90% 30.02 in 9.0 mi South 5.8 mph - N/A   Clear
3:53 AM 57.0 °F 55.0 °F 93% 30.01 in 8.0 mi South 4.6 mph - N/A   Partly Cloudy
4:53 AM 55.9 °F 54.0 °F 93% 30.03 in 6.0 mi SSW 5.8 mph - N/A   Clear
5:43 AM 57.2 °F 55.4 °F 94% 30.05 in 5.0 mi SSW 4.6 mph - N/A   Overcast
5:53 AM 57.9 °F 55.9 °F 93% 30.04 in 5.0 mi SSW 4.6 mph - N/A   Overcast
6:25 AM 55.4 °F 55.4 °F 100% 30.05 in 4.0 mi SSW 3.5 mph - N/A   Mostly Cloudy
6:38 AM 57.2 °F 55.4 °F 94% 30.06 in 4.0 mi SSW 5.8 mph - N/A   Mostly Cloudy
6:53 AM 57.0 °F 55.9 °F 96% 30.05 in 4.0 mi SSW 5.8 mph - N/A   Overcast
7:25 AM 55.4 °F 55.4 °F 100% 30.06 in 2.5 mi SSW 4.6 mph - N/A   Mostly Cloudy
7:36 AM 55.4 °F 55.4 °F 100% 30.06 in 1.5 mi SSW 3.5 mph - N/A   Mostly Cloudy
7:53 AM 55.9 °F 55.0 °F 97% 30.06 in 1.2 mi SSW 4.6 mph - N/A   Mostly Cloudy
8:12 AM 57.2 °F 55.4 °F 94% 30.07 in 1.5 mi SSW 4.6 mph - N/A   Mostly Cloudy
8:35 AM 57.2 °F 55.4 °F 94% 30.07 in 1.8 mi SSW 4.6 mph - N/A   Mostly Cloudy
8:53 AM 59.0 °F 57.0 °F 93% 30.07 in 2.0 mi SW 3.5 mph - N/A   Mostly Cloudy
9:00 AM 59.0 °F 57.2 °F 94% 30.08 in 2.0 mi SSW 4.6 mph - N/A   Mostly Cloudy
9:50 AM 60.8 °F 59.0 °F 94% 30.08 in 3.0 mi SW 4.6 mph - N/A   Overcast
9:53 AM 61.0 °F 59.0 °F 93% 30.07 in 3.0 mi SW 4.6 mph - N/A   Overcast
10:53 AM 64.0 °F 59.0 °F 84% 30.07 in 7.0 mi WSW 5.8 mph - N/A   Overcast
11:23 AM 64.4 °F 60.8 °F 88% 30.08 in 8.0 mi West 6.9 mph - N/A   Overcast
11:53 AM 66.0 °F 59.0 °F 78% 30.06 in 10.0 mi WSW 6.9 mph - N/A   Mostly Cloudy
12:07 PM 68.0 °F 60.8 °F 78% 30.08 in 10.0 mi West 5.8 mph - N/A   Mostly Cloudy
12:17 PM 66.2 °F 59.0 °F 78% 30.07 in 10.0 mi WSW 4.6 mph - N/A   Scattered Clouds
12:53 PM 69.1 °F 57.9 °F 68% 30.05 in 10.0 mi West 9.2 mph - N/A   Mostly Cloudy
1:03 PM 69.8 °F 57.2 °F 64% 30.07 in 10.0 mi WSW 6.9 mph - N/A   Mostly Cloudy
1:53 PM 71.1 °F 55.9 °F 59% 30.04 in 10.0 mi WSW 8.1 mph - N/A   Scattered Clouds
2:53 PM 73.0 °F 57.0 °F 57% 30.02 in 10.0 mi WSW 9.2 mph - N/A   Partly Cloudy
3:53 PM 73.9 °F 57.0 °F 55% 30.01 in 10.0 mi West 10.4 mph 17.3 mph N/A   Scattered Clouds
4:53 PM 73.0 °F 55.0 °F 53% 30.00 in 10.0 mi SW 8.1 mph - N/A   Scattered Clouds
5:53 PM 72.0 °F 57.0 °F 59% 30.00 in 10.0 mi SW 5.8 mph - N/A   Clear
6:53 PM 68.0 °F 57.0 °F 68% 30.00 in 10.0 mi SW 4.6 mph - N/A   Clear
7:53 PM 64.0 °F 57.0 °F 78% 30.01 in 10.0 mi South 3.5 mph - N/A   Clear
8:53 PM 64.0 °F 57.0 °F 78% 30.01 in 10.0 mi South 4.6 mph - N/A   Clear
9:53 PM 62.1 °F 57.0 °F 84% 30.02 in 10.0 mi South 4.6 mph - N/A   Clear
10:53 PM 61.0 °F 57.0 °F 87% 30.02 in 10.0 mi South 5.8 mph - N/A   Clear
11:53 PM 60.1 °F 55.9 °F 86% 30.02 in 10.0 mi SSW 6.9 mph - N/A   Clear